Time,TemperatureF,DewpointF,PressureIn,WindDirection,WindDirectionDegrees,WindSpeedMPH,WindSpeedGustMPH,Humidity,HourlyPrecipIn,Conditions,Clouds,dailyrainin,SoftwareType,DateUTC
2013-08-06 00:05:00,75.3,69.1,29.72,ENE,61,0.0,0.0,81,0.00,,,0.00,Wunderground v.1.15,2013-08-06 05:05:00,
2013-08-06 00:15:00,75.3,69.1,29.72,ENE,61,0.0,0.0,81,0.00,,,0.00,Wunderground v.1.15,2013-08-06 05:15:00,
2013-08-06 00:25:00,75.1,68.9,29.72,ENE,61,0.0,0.0,81,0.00,,,0.00,Wunderground v.1.15,2013-08-06 05:25:00,
2013-08-06 00:30:00,75.1,68.9,29.72,ENE,61,0.0,0.0,81,0.00,,,0.00,Wunderground v.1.15,2013-08-06 05:30:00,
2013-08-06 00:40:00,74.9,68.7,29.72,ENE,61,0.0,0.0,81,0.00,,,0.00,Wunderground v.1.15,2013-08-06 05:40:00,
2013-08-06 00:50:00,74.7,68.8,29.72,ENE,61,0.0,0.0,82,0.00,,,0.00,Wunderground v.1.15,2013-08-06 05:50:00,
2013-08-06 01:00:00,74.6,68.7,29.71,ENE,61,0.0,0.0,82,0.00,,,0.00,Wunderground v.1.15,2013-08-06 06:00:00,
2013-08-06 01:10:00,74.6,68.7,29.71,ENE,61,0.0,0.0,82,0.00,,,0.00,Wunderground v.1.15,2013-08-06 06:10:00,
2013-08-06 01:15:00,74.6,68.7,29.70,ENE,61,0.0,0.0,82,0.00,,,0.00,Wunderground v.1.15,2013-08-06 06:15:00,
2013-08-06 01:25:00,74.4,68.5,29.70,ENE,61,0.0,0.0,82,0.00,,,0.00,Wunderground v.1.15,2013-08-06 06:25:00,
2013-08-06 01:35:00,74.4,68.5,29.68,ENE,61,0.0,0.0,82,0.00,,,0.00,Wunderground v.1.15,2013-08-06 06:35:00,
2013-08-06 01:45:00,74.6,68.7,29.68,ENE,61,0.0,0.0,82,0.00,,,0.00,Wunderground v.1.15,2013-08-06 06:45:00,
2013-08-06 01:55:00,74.6,68.7,29.68,ENE,61,0.0,0.0,82,0.00,,,0.00,Wunderground v.1.15,2013-08-06 06:55:00,
2013-08-06 02:00:00,74.6,68.7,29.67,ENE,61,0.0,0.0,82,0.00,,,0.00,Wunderground v.1.15,2013-08-06 07:00:00,
2013-08-06 02:10:00,74.7,68.8,29.67,ENE,61,0.0,0.0,82,0.00,,,0.00,Wunderground v.1.15,2013-08-06 07:10:00,
2013-08-06 02:20:00,74.6,69.1,29.67,ENE,61,0.0,0.0,83,0.00,,,0.00,Wunderground v.1.15,2013-08-06 07:20:00,
2013-08-06 02:30:00,74.4,68.9,29.68,ENE,61,0.0,0.0,83,0.00,,,0.00,Wunderground v.1.15,2013-08-06 07:30:00,
2013-08-06 02:40:00,74.0,68.5,29.68,ENE,61,0.0,0.0,83,0.00,,,0.00,Wunderground v.1.15,2013-08-06 07:40:00,
2013-08-06 02:45:00,73.9,68.4,29.68,ENE,61,0.0,0.0,83,0.00,,,0.00,Wunderground v.1.15,2013-08-06 07:45:00,
2013-08-06 02:55:00,73.7,68.2,29.68,ENE,61,0.0,0.0,83,0.00,,,0.00,Wunderground v.1.15,2013-08-06 07:55:00,
2013-08-06 03:05:00,73.2,67.7,29.68,ENE,61,0.0,0.0,83,0.00,,,0.00,Wunderground v.1.15,2013-08-06 08:05:00,
2013-08-06 03:15:00,73.0,67.5,29.67,ENE,61,0.0,0.0,83,0.00,,,0.00,Wunderground v.1.15,2013-08-06 08:15:00,
2013-08-06 03:25:00,72.8,67.7,29.67,ENE,61,0.0,0.0,84,0.00,,,0.00,Wunderground v.1.15,2013-08-06 08:25:00,
2013-08-06 03:30:00,72.8,67.7,29.67,ENE,61,0.0,0.0,84,0.00,,,0.00,Wunderground v.1.15,2013-08-06 08:30:00,
2013-08-06 03:40:00,72.8,67.7,29.67,ENE,61,0.0,0.0,84,0.00,,,0.00,Wunderground v.1.15,2013-08-06 08:40:00,
2013-08-06 03:50:00,72.8,67.7,29.68,ENE,61,0.0,0.0,84,0.00,,,0.00,Wunderground v.1.15,2013-08-06 08:50:00,
2013-08-06 04:00:00,72.5,67.4,29.68,ENE,61,0.0,0.0,84,0.00,,,0.00,Wunderground v.1.15,2013-08-06 09:00:00,
2013-08-06 04:10:00,72.1,67.0,29.68,ENE,61,0.0,0.0,84,0.00,,,0.00,Wunderground v.1.15,2013-08-06 09:10:00,
2013-08-06 04:15:00,71.8,66.7,29.68,ENE,61,0.0,0.0,84,0.00,,,0.00,Wunderground v.1.15,2013-08-06 09:15:00,
2013-08-06 04:25:00,71.6,66.8,29.68,ENE,61,0.0,0.0,85,0.00,,,0.00,Wunderground v.1.15,2013-08-06 09:25:00,
2013-08-06 04:35:00,71.6,66.8,29.68,East,89,0.0,0.0,85,0.00,,,0.00,Wunderground v.1.15,2013-08-06 09:35:00,
2013-08-06 04:45:00,72.0,67.2,29.68,East,89,0.0,0.0,85,0.00,,,0.00,Wunderground v.1.15,2013-08-06 09:45:00,
2013-08-06 04:55:00,72.3,67.5,29.68,East,89,0.0,0.0,85,0.00,,,0.00,Wunderground v.1.15,2013-08-06 09:55:00,
2013-08-06 05:00:00,72.3,67.5,29.67,East,89,0.0,0.0,85,0.00,,,0.00,Wunderground v.1.15,2013-08-06 10:00:00,
2013-08-06 05:10:00,72.3,67.5,29.67,East,89,0.0,0.0,85,0.00,,,0.00,Wunderground v.1.15,2013-08-06 10:10:00,
2013-08-06 05:20:00,72.5,67.7,29.66,SE,136,1.0,1.0,85,0.00,,,0.00,Wunderground v.1.15,2013-08-06 10:20:00,
2013-08-06 05:30:00,72.5,67.7,29.66,SE,141,1.0,1.0,85,0.00,,,0.00,Wunderground v.1.15,2013-08-06 10:30:00,
2013-08-06 05:40:00,72.7,68.3,29.66,SE,144,1.0,1.0,86,0.00,,,0.00,Wunderground v.1.15,2013-08-06 10:40:00,
2013-08-06 05:45:00,72.7,68.3,29.66,SE,144,0.0,1.0,86,0.00,,,0.00,Wunderground v.1.15,2013-08-06 10:45:00,
2013-08-06 05:55:00,72.5,68.1,29.66,SE,144,0.0,0.0,86,0.00,,,0.00,Wunderground v.1.15,2013-08-06 10:55:00,
2013-08-06 06:05:00,72.3,67.9,29.65,SE,144,0.0,0.0,86,0.00,,,0.00,Wunderground v.1.15,2013-08-06 11:05:00,
2013-08-06 06:15:00,72.3,67.9,29.64,SE,144,0.0,0.0,86,0.00,,,0.00,Wunderground v.1.15,2013-08-06 11:15:00,
2013-08-06 06:25:00,72.1,67.7,29.64,SE,144,0.0,0.0,86,0.00,,,0.00,Wunderground v.1.15,2013-08-06 11:25:00,
2013-08-06 06:35:00,72.0,67.6,29.64,SE,144,0.0,0.0,86,0.00,,,0.00,Wunderground v.1.15,2013-08-06 11:35:00,
2013-08-06 06:40:00,71.5,67.1,29.64,SE,144,0.0,0.0,86,0.00,,,0.00,Wunderground v.1.15,2013-08-06 11:40:00,
2013-08-06 06:50:00,71.1,66.7,29.64,SE,140,1.0,2.0,86,0.00,,,0.00,Wunderground v.1.15,2013-08-06 11:50:00,
2013-08-06 07:00:00,71.3,66.9,29.64,SE,131,1.0,1.0,86,0.00,,,0.00,Wunderground v.1.15,2013-08-06 12:00:00,
2013-08-06 07:10:00,71.3,66.9,29.64,SE,131,0.0,0.0,86,0.00,,,0.00,Wunderground v.1.15,2013-08-06 12:10:00,
2013-08-06 07:20:00,71.6,67.2,29.65,SE,128,0.0,0.0,86,0.00,,,0.00,Wunderground v.1.15,2013-08-06 12:20:00,
2013-08-06 07:30:00,72.0,67.6,29.67,SE,131,1.0,1.0,86,0.00,,,0.00,Wunderground v.1.15,2013-08-06 12:30:00,
2013-08-06 07:35:00,71.8,67.4,29.67,SE,131,1.0,1.0,86,0.00,,,0.00,Wunderground v.1.15,2013-08-06 12:35:00,
2013-08-06 07:45:00,72.0,67.9,29.68,SE,137,1.0,1.0,87,0.00,,,0.00,Wunderground v.1.15,2013-08-06 12:45:00,
2013-08-06 07:55:00,72.5,68.4,29.68,SE,134,2.0,2.0,87,0.00,,,0.00,Wunderground v.1.15,2013-08-06 12:55:00,
2013-08-06 08:05:00,73.0,68.9,29.70,SSE,150,1.0,1.0,87,0.00,,,0.00,Wunderground v.1.15,2013-08-06 13:05:00,
2013-08-06 08:15:00,73.9,70.1,29.70,SE,140,1.0,1.0,88,0.00,,,0.00,Wunderground v.1.15,2013-08-06 13:15:00,
2013-08-06 08:25:00,74.9,71.1,29.70,SE,126,0.0,1.0,88,0.00,,,0.00,Wunderground v.1.15,2013-08-06 13:25:00,
2013-08-06 08:30:00,75.4,71.3,29.71,ESE,121,0.0,2.0,87,0.00,,,0.00,Wunderground v.1.15,2013-08-06 13:30:00,
2013-08-06 08:40:00,76.1,71.9,29.71,ESE,120,0.0,1.0,87,0.00,,,0.00,Wunderground v.1.15,2013-08-06 13:40:00,
2013-08-06 08:50:00,76.3,72.1,29.71,SE,141,0.0,0.0,87,0.00,,,0.00,Wunderground v.1.15,2013-08-06 13:50:00,
2013-08-06 08:55:00,76.8,72.6,29.71,SE,141,0.0,0.0,87,0.00,,,0.00,Wunderground v.1.15,2013-08-06 13:55:00,
2013-08-06 09:05:00,77.2,72.7,29.70,SE,140,2.0,6.0,86,0.00,,,0.00,Wunderground v.1.15,2013-08-06 14:05:00,
2013-08-06 09:15:00,77.4,72.9,29.70,SSE,147,3.0,6.0,86,0.00,,,0.00,Wunderground v.1.15,2013-08-06 14:15:00,
2013-08-06 09:20:00,77.4,72.9,29.70,SSE,168,2.0,2.0,86,0.00,,,0.00,Wunderground v.1.15,2013-08-06 14:20:00,
2013-08-06 09:30:00,77.7,73.2,29.70,SE,128,1.0,1.0,86,0.00,,,0.00,Wunderground v.1.15,2013-08-06 14:30:00,
2013-08-06 09:35:00,78.3,73.8,29.70,East,93,1.0,1.0,86,0.00,,,0.00,Wunderground v.1.15,2013-08-06 14:35:00,
2013-08-06 09:45:00,79.4,74.8,29.70,East,95,1.0,1.0,86,0.00,,,0.00,Wunderground v.1.15,2013-08-06 14:45:00,
2013-08-06 09:55:00,80.1,75.2,29.70,East,92,0.0,1.0,85,0.00,,,0.00,Wunderground v.1.15,2013-08-06 14:55:00,
2013-08-06 10:00:00,80.5,75.6,29.70,East,92,0.0,0.0,85,0.00,,,0.00,Wunderground v.1.15,2013-08-06 15:00:00,
2013-08-06 10:10:00,81.1,75.8,29.70,East,90,0.0,1.0,84,0.00,,,0.00,Wunderground v.1.15,2013-08-06 15:10:00,
2013-08-06 10:15:00,81.4,76.1,29.70,East,88,0.0,1.0,84,0.00,,,0.00,Wunderground v.1.15,2013-08-06 15:15:00,
2013-08-06 10:25:00,81.6,75.9,29.70,East,80,1.0,2.0,83,0.00,,,0.00,Wunderground v.1.15,2013-08-06 15:25:00,
2013-08-06 10:35:00,81.4,75.4,29.71,NE,34,2.0,4.0,82,0.00,,,0.00,Wunderground v.1.15,2013-08-06 15:35:00,
2013-08-06 10:40:00,81.1,75.1,29.71,NNE,14,3.0,3.0,82,0.00,,,0.00,Wunderground v.1.15,2013-08-06 15:40:00,
2013-08-06 10:50:00,80.5,74.5,29.71,NNE,18,4.0,4.0,82,0.00,,,0.00,Wunderground v.1.15,2013-08-06 15:50:00,
2013-08-06 11:00:00,80.7,74.7,29.72,NNE,27,4.0,4.0,82,0.00,,,0.00,Wunderground v.1.15,2013-08-06 16:00:00,
2013-08-06 11:05:00,80.9,74.9,29.72,NNE,20,4.0,4.0,82,0.00,,,0.00,Wunderground v.1.15,2013-08-06 16:05:00,
2013-08-06 11:15:00,81.1,74.7,29.72,NE,35,6.0,8.0,81,0.00,,,0.00,Wunderground v.1.15,2013-08-06 16:15:00,
2013-08-06 11:25:00,81.1,74.7,29.72,NNE,18,5.0,6.0,81,0.00,,,0.00,Wunderground v.1.15,2013-08-06 16:25:00,
2013-08-06 11:30:00,81.4,75.0,29.72,NE,52,4.0,7.0,81,0.00,,,0.00,Wunderground v.1.15,2013-08-06 16:30:00,
2013-08-06 11:40:00,82.2,75.4,29.72,ESE,110,4.0,4.0,80,0.00,,,0.00,Wunderground v.1.15,2013-08-06 16:40:00,
2013-08-06 11:45:00,82.8,76.0,29.71,East,96,2.0,4.0,80,0.00,,,0.00,Wunderground v.1.15,2013-08-06 16:45:00,
2013-08-06 11:55:00,84.1,76.9,29.71,ESE,110,2.0,2.0,79,0.00,,,0.00,Wunderground v.1.15,2013-08-06 16:55:00,
2013-08-06 12:05:00,84.7,77.1,29.70,ESE,103,2.0,4.0,78,0.00,,,0.00,Wunderground v.1.15,2013-08-06 17:05:00,
2013-08-06 12:10:00,84.9,77.3,29.70,ESE,102,3.0,4.0,78,0.00,,,0.00,Wunderground v.1.15,2013-08-06 17:10:00,
2013-08-06 12:20:00,84.9,76.9,29.69,ENE,78,3.0,3.0,77,0.00,,,0.00,Wunderground v.1.15,2013-08-06 17:20:00,
2013-08-06 12:30:00,84.9,76.5,29.69,ESE,107,2.0,2.0,76,0.00,,,0.00,Wunderground v.1.15,2013-08-06 17:30:00,
2013-08-06 12:40:00,84.3,75.5,29.69,East,92,2.0,2.0,75,0.00,,,0.00,Wunderground v.1.15,2013-08-06 17:40:00,
2013-08-06 12:45:00,84.1,75.3,29.68,East,89,2.0,2.0,75,0.00,,,0.00,Wunderground v.1.15,2013-08-06 17:45:00,
2013-08-06 12:55:00,83.8,75.0,29.68,SSE,150,2.0,2.0,75,0.00,,,0.00,Wunderground v.1.15,2013-08-06 17:55:00,
2013-08-06 13:00:00,83.8,75.0,29.67,ESE,112,1.0,2.0,75,0.00,,,0.00,Wunderground v.1.15,2013-08-06 18:00:00,
2013-08-06 13:10:00,84.9,76.1,29.67,ESE,109,2.0,6.0,75,0.00,,,0.00,Wunderground v.1.15,2013-08-06 18:10:00,
2013-08-06 13:20:00,85.9,76.6,29.65,SE,137,5.0,5.0,74,0.00,,,0.00,Wunderground v.1.15,2013-08-06 18:20:00,
2013-08-06 13:25:00,86.1,76.4,29.65,SE,145,5.0,7.0,73,0.00,,,0.00,Wunderground v.1.15,2013-08-06 18:25:00,
2013-08-06 13:35:00,85.9,75.8,29.65,SSE,152,6.0,7.0,72,0.00,,,0.00,Wunderground v.1.15,2013-08-06 18:35:00,
2013-08-06 13:40:00,85.5,75.4,29.65,SE,143,6.0,6.0,72,0.00,,,0.00,Wunderground v.1.15,2013-08-06 18:40:00,
2013-08-06 13:50:00,85.9,75.8,29.65,SE,127,5.0,7.0,72,0.00,,,0.00,Wunderground v.1.15,2013-08-06 18:50:00,
2013-08-06 14:00:00,85.7,75.6,29.65,SSE,165,6.0,6.0,72,0.00,,,0.00,Wunderground v.1.15,2013-08-06 19:00:00,
2013-08-06 14:10:00,85.7,75.2,29.65,SE,145,4.0,4.0,71,0.00,,,0.00,Wunderground v.1.15,2013-08-06 19:10:00,
2013-08-06 14:20:00,85.5,74.6,29.64,SE,141,6.0,7.0,70,0.00,,,0.00,Wunderground v.1.15,2013-08-06 19:20:00,
2013-08-06 14:25:00,85.3,74.4,29.64,SSE,152,7.0,7.0,70,0.00,,,0.00,Wunderground v.1.15,2013-08-06 19:25:00,
2013-08-06 14:35:00,85.7,74.8,29.64,SE,140,5.0,7.0,70,0.00,,,0.00,Wunderground v.1.15,2013-08-06 19:35:00,
2013-08-06 14:45:00,86.1,75.2,29.64,SSE,150,5.0,8.0,70,0.00,,,0.00,Wunderground v.1.15,2013-08-06 19:45:00,
2013-08-06 14:55:00,86.7,75.3,29.64,SSE,165,4.0,6.0,69,0.00,,,0.00,Wunderground v.1.15,2013-08-06 19:55:00,
2013-08-06 15:00:00,87.0,75.6,29.64,SE,143,4.0,4.0,69,0.00,,,0.00,Wunderground v.1.15,2013-08-06 20:00:00,
2013-08-06 15:10:00,87.0,75.6,29.64,South,171,4.0,4.0,69,0.00,,,0.00,Wunderground v.1.15,2013-08-06 20:10:00,
2013-08-06 15:20:00,86.7,74.9,29.64,SSE,158,4.0,4.0,68,0.00,,,0.00,Wunderground v.1.15,2013-08-06 20:20:00,
2013-08-06 15:30:00,87.0,75.2,29.63,SSW,208,7.0,7.0,68,0.00,,,0.00,Wunderground v.1.15,2013-08-06 20:30:00,
2013-08-06 15:35:00,86.7,74.9,29.63,South,174,6.0,7.0,68,0.00,,,0.00,Wunderground v.1.15,2013-08-06 20:35:00,
2013-08-06 15:45:00,86.3,74.5,29.63,SE,130,6.0,6.0,68,0.00,,,0.00,Wunderground v.1.15,2013-08-06 20:45:00,
2013-08-06 15:55:00,87.0,74.7,29.63,South,186,4.0,7.0,67,0.00,,,0.00,Wunderground v.1.15,2013-08-06 20:55:00,
2013-08-06 16:05:00,87.4,75.1,29.62,SSE,162,4.0,4.0,67,0.00,,,0.00,Wunderground v.1.15,2013-08-06 21:05:00,
2013-08-06 16:10:00,87.4,74.6,29.62,SSW,209,4.0,7.0,66,0.00,,,0.00,Wunderground v.1.15,2013-08-06 21:10:00,
2013-08-06 16:20:00,87.0,73.8,29.62,SW,220,7.0,10.0,65,0.00,,,0.00,Wunderground v.1.15,2013-08-06 21:20:00,
2013-08-06 16:30:00,87.0,73.8,29.62,SSE,161,6.0,6.0,65,0.00,,,0.00,Wunderground v.1.15,2013-08-06 21:30:00,
2013-08-06 16:40:00,87.2,74.0,29.62,SSE,167,5.0,5.0,65,0.00,,,0.00,Wunderground v.1.15,2013-08-06 21:40:00,
2013-08-06 16:50:00,87.4,74.2,29.61,SSE,150,5.0,5.0,65,0.00,,,0.00,Wunderground v.1.15,2013-08-06 21:50:00,
2013-08-06 16:55:00,87.6,74.4,29.61,SE,145,4.0,5.0,65,0.00,,,0.00,Wunderground v.1.15,2013-08-06 21:55:00,
2013-08-06 17:05:00,87.6,73.9,29.61,SSW,210,4.0,8.0,64,0.00,,,0.00,Wunderground v.1.15,2013-08-06 22:05:00,
2013-08-06 17:15:00,86.7,72.6,29.62,SSW,206,8.0,13.0,63,0.00,,,0.00,Wunderground v.1.15,2013-08-06 22:15:00,
2013-08-06 17:20:00,86.5,72.4,29.62,SSW,196,7.0,7.0,63,0.00,,,0.00,Wunderground v.1.15,2013-08-06 22:20:00,
2013-08-06 17:30:00,86.7,72.6,29.62,SSE,158,5.0,5.0,63,0.00,,,0.00,Wunderground v.1.15,2013-08-06 22:30:00,
2013-08-06 17:40:00,87.0,72.9,29.62,South,182,4.0,4.0,63,0.00,,,0.00,Wunderground v.1.15,2013-08-06 22:40:00,
2013-08-06 17:50:00,87.0,72.9,29.62,South,188,2.0,2.0,63,0.00,,,0.00,Wunderground v.1.15,2013-08-06 22:50:00,
2013-08-06 17:55:00,87.0,72.9,29.62,SSW,199,2.0,2.0,63,0.00,,,0.00,Wunderground v.1.15,2013-08-06 22:55:00,
2013-08-06 18:05:00,87.2,73.5,29.62,South,188,3.0,3.0,64,0.00,,,0.00,Wunderground v.1.15,2013-08-06 23:05:00,
2013-08-06 18:15:00,86.5,72.9,29.62,SSW,196,4.0,6.0,64,0.00,,,0.00,Wunderground v.1.15,2013-08-06 23:15:00,
2013-08-06 18:25:00,86.5,72.9,29.62,SSW,203,3.0,7.0,64,0.00,,,0.00,Wunderground v.1.15,2013-08-06 23:25:00,
2013-08-06 18:35:00,86.1,73.0,29.63,South,169,3.0,4.0,65,0.00,,,0.00,Wunderground v.1.15,2013-08-06 23:35:00,
2013-08-06 18:40:00,85.9,72.8,29.63,South,188,3.0,3.0,65,0.00,,,0.00,Wunderground v.1.15,2013-08-06 23:40:00,
2013-08-06 18:50:00,85.5,72.4,29.63,SSW,192,3.0,3.0,65,0.00,,,0.00,Wunderground v.1.15,2013-08-06 23:50:00,
2013-08-06 19:00:00,85.9,72.8,29.63,SSW,192,1.0,1.0,65,0.00,,,0.00,Wunderground v.1.15,2013-08-07 00:00:00,
2013-08-06 19:10:00,86.3,73.1,29.63,SSW,192,0.0,0.0,65,0.00,,,0.00,Wunderground v.1.15,2013-08-07 00:10:00,
2013-08-06 19:15:00,86.3,73.1,29.63,SSW,192,0.0,0.0,65,0.00,,,0.00,Wunderground v.1.15,2013-08-07 00:15:00,
2013-08-06 19:25:00,86.5,73.3,29.63,SSW,192,0.0,0.0,65,0.00,,,0.00,Wunderground v.1.15,2013-08-07 00:25:00,
2013-08-06 19:35:00,86.5,73.3,29.63,SSW,192,0.0,0.0,65,0.00,,,0.00,Wunderground v.1.15,2013-08-07 00:35:00,
2013-08-06 19:40:00,86.3,73.1,29.63,SSW,192,0.0,0.0,65,0.00,,,0.00,Wunderground v.1.15,2013-08-07 00:40:00,
2013-08-06 19:50:00,85.9,72.8,29.63,SSW,192,0.0,0.0,65,0.00,,,0.00,Wunderground v.1.15,2013-08-07 00:50:00,
2013-08-06 20:00:00,85.5,72.8,29.63,SSW,192,0.0,0.0,66,0.00,,,0.00,Wunderground v.1.15,2013-08-07 01:00:00,
2013-08-06 20:10:00,84.9,72.3,29.63,SSW,192,0.0,0.0,66,0.00,,,0.00,Wunderground v.1.15,2013-08-07 01:10:00,
2013-08-06 20:15:00,84.5,71.9,29.63,SSE,157,0.0,0.0,66,0.00,,,0.00,Wunderground v.1.15,2013-08-07 01:15:00,
2013-08-06 20:25:00,84.0,71.4,29.63,SSE,157,0.0,1.0,66,0.00,,,0.00,Wunderground v.1.15,2013-08-07 01:25:00,
2013-08-06 20:30:00,83.6,71.5,29.64,SSE,157,0.0,0.0,67,0.00,,,0.00,Wunderground v.1.15,2013-08-07 01:30:00,
2013-08-06 20:40:00,83.2,71.1,29.64,SSE,157,0.0,0.0,67,0.00,,,0.00,Wunderground v.1.15,2013-08-07 01:40:00,
2013-08-06 20:50:00,82.8,71.2,29.64,SSE,157,0.0,0.0,68,0.00,,,0.00,Wunderground v.1.15,2013-08-07 01:50:00,
2013-08-06 20:55:00,82.4,70.8,29.64,SSE,157,0.0,0.0,68,0.00,,,0.00,Wunderground v.1.15,2013-08-07 01:55:00,
2013-08-06 21:05:00,81.8,70.2,29.63,SSE,154,1.0,1.0,68,0.00,,,0.00,Wunderground v.1.15,2013-08-07 02:05:00,
2013-08-06 21:15:00,81.6,70.4,29.64,SSE,152,0.0,0.0,69,0.00,,,0.00,Wunderground v.1.15,2013-08-07 02:15:00,
2013-08-06 21:20:00,81.4,70.2,29.64,SSE,152,0.0,1.0,69,0.00,,,0.00,Wunderground v.1.15,2013-08-07 02:20:00,
2013-08-06 21:30:00,81.1,70.0,29.65,SSE,152,0.0,0.0,69,0.00,,,0.00,Wunderground v.1.15,2013-08-07 02:30:00,
2013-08-06 21:40:00,80.7,69.6,29.65,SSE,152,0.0,0.0,69,0.00,,,0.00,Wunderground v.1.15,2013-08-07 02:40:00,
2013-08-06 21:45:00,80.7,69.6,29.66,SSE,152,0.0,0.0,69,0.00,,,0.00,Wunderground v.1.15,2013-08-07 02:45:00,
2013-08-06 21:55:00,80.5,69.8,29.66,SSE,152,0.0,0.0,70,0.00,,,0.00,Wunderground v.1.15,2013-08-07 02:55:00,
2013-08-06 22:05:00,80.1,69.4,29.67,SSE,152,0.0,0.0,70,0.00,,,0.00,Wunderground v.1.15,2013-08-07 03:05:00,
2013-08-06 22:10:00,80.1,69.8,29.67,SSE,152,0.0,0.0,71,0.00,,,0.00,Wunderground v.1.15,2013-08-07 03:10:00,
2013-08-06 22:20:00,79.8,69.6,29.67,SSE,152,0.0,0.0,71,0.00,,,0.00,Wunderground v.1.15,2013-08-07 03:20:00,
2013-08-06 22:25:00,79.8,69.6,29.67,SSE,152,0.0,0.0,71,0.00,,,0.00,Wunderground v.1.15,2013-08-07 03:25:00,
2013-08-06 22:35:00,79.6,69.8,29.67,SSE,152,0.0,0.0,72,0.00,,,0.00,Wunderground v.1.15,2013-08-07 03:35:00,
2013-08-06 22:45:00,79.2,69.0,29.66,SSE,152,0.0,0.0,71,0.00,,,0.00,Wunderground v.1.15,2013-08-07 03:45:00,
2013-08-06 22:55:00,79.0,69.2,29.66,SSE,152,0.0,0.0,72,0.00,,,0.00,Wunderground v.1.15,2013-08-07 03:55:00,
2013-08-06 23:05:00,78.8,69.0,29.66,SSE,147,1.0,4.0,72,0.00,,,0.00,Wunderground v.1.15,2013-08-07 04:05:00,
2013-08-06 23:10:00,78.8,69.0,29.66,SE,133,2.0,2.0,72,0.00,,,0.00,Wunderground v.1.15,2013-08-07 04:10:00,
2013-08-06 23:15:00,78.6,68.8,29.64,SE,131,1.0,2.0,72,0.00,,,0.00,Wunderground v.1.15,2013-08-07 04:15:00,
2013-08-06 23:20:00,78.5,68.7,29.64,SE,126,1.0,2.0,72,0.00,,,0.00,Wunderground v.1.15,2013-08-07 04:20:00,
2013-08-06 23:25:00,78.5,69.1,29.64,SSE,155,1.0,2.0,73,0.00,,,0.00,Wunderground v.1.15,2013-08-07 04:25:00,
2013-08-06 23:30:00,78.3,68.9,29.64,SSE,155,1.0,1.0,73,0.00,,,0.00,Wunderground v.1.15,2013-08-07 04:30:00,
2013-08-06 23:35:00,78.3,68.9,29.64,SE,138,1.0,1.0,73,0.00,,,0.00,Wunderground v.1.15,2013-08-07 04:35:00,
2013-08-06 23:45:00,78.1,68.7,29.66,SE,138,1.0,1.0,73,0.00,,,0.00,Wunderground v.1.15,2013-08-07 04:45:00,
2013-08-06 23:55:00,77.9,68.9,29.66,SE,138,0.0,0.0,74,0.00,,,0.00,Wunderground v.1.15,2013-08-07 04:55:00,